Zurück zum Katalog

STARLINK-3592

AktivKommunikationVLEO
NORAD 51801·PAYLOAD·🇺🇸 United States

Gestartet Feb 25, 2022 von Vandenberg Space Force Base

Loading…

Nächste Überflüge (nächste 24 Stunden)

TLE

AktuellSource: CelesTrak SupGP

Epoche: Sep 15, 2026, 02:29 UTC

1 51801C 22017AK  26258.10395833 -.00018414  00000+0 -54415-3 0  2581
2 51801  53.1585 204.6004 0001373  83.2214 248.9502 15.34393343    13

Verfolge STARLINK-3592 in Echtzeit mit AllMySat

Download on the App Store